Regional Weather Roundup
Issued by NWS

Home | Current Version | Previous Version | Text Only | Print | Product List | Glossary On
Versions: 1 2 3 4 5 6 7 8 9 10 11 12 13 14 15 16 17 18 19 20 21 22 23 24 25 26 27 28 29 30 31 32 33 34 35 36 37 38 39 40 41 42 43 44 45 46 47 48 49 50
000
ASUS43 KBIS 250220
RWRND

NORTH DAKOTA REGIONAL WEATHER ROUNDUP
NATIONAL WEATHER SERVICE BISMARCK ND
900 PM CDT SUN MAY 24 2015

NOTE: "FAIR" INDICATES FEW OR NO CLOUDS BELOW 12,000 FEET WITH NO
SIGNIFICANT WEATHER AND/OR OBSTRUCTIONS TO VISIBILITY.


NDZ001>003-009>011-017-250300-
NORTHWEST NORTH DAKOTA

CITY           SKY/WX    TMP DP  RH WIND       PRES   REMARKS
WILLISTON      PTCLDY    69  43  38 E8        29.91R
MINOT          MOCLDY    66  44  45 NE6       29.90S
MINOT AFB      PTCLDY    69  46  42 SE7       29.89S
$$

NDZ018>021-031>035-040>046-250300-
SOUTHWEST NORTH DAKOTA

CITY           SKY/WX    TMP DP  RH WIND       PRES   REMARKS
BISMARCK       CLOUDY    63  52  67 E6        29.89F
DICKINSON      CLOUDY    59  50  72 NE5       29.90S
GARRISON         N/A     67  48  50 E3        29.90F
HETTINGER ARPT CLOUDY    58  49  72 NE10      29.90F
$$

NDZ004>008-012>016-024-026-027-054-250300-
NORTHEAST NORTH DAKOTA

CITY           SKY/WX    TMP DP  RH WIND       PRES   REMARKS
GRAND FORKS    CLOUDY    68  50  52 S5        29.89S
GRND FRKS AFB  CLOUDY    67  52  58 S3        29.90S
DEVILS LAKE    CLOUDY    64  46  52 E5        29.90F
$$

NDZ022-023-025-028>030-036>039-047>053-250300-
SOUTHEAST NORTH DAKOTA

CITY           SKY/WX    TMP DP  RH WIND       PRES   REMARKS
FARGO          CLOUDY    66  54  65 CALM      29.88S
JAMESTOWN      CLOUDY    63  53  70 SE3       29.89F
$$




USA.gov is the U.S. government's official web portal to all federal, state and local government web resources and services.